W4TTU-1 Weather Reports


Display with metric or nautical units.
time (UTC)temp
F
wind
direction
speed
MPH
gust
MPH
rain 1hr
in
rain 24hr
in
rain mn
in
humidity
%
barometer
mb
20260504081710 49 270 0.0 1.0 0.00 0.00 0.00 27 841.1
20260504080206 50 270 0.0 1.0 0.00 0.00 0.00 27 841.2
20260504070203 52 270 0.0 2.0 0.00 0.00 0.00 27 841.3
20260504060201 54 270 2.0 3.0 0.00 0.00 0.00 27 841.2
20260504050159 59 270 0.0 0.0 0.00 0.00 0.00 26 841.3
20260504044700 61 270 1.0 1.0 0.00 0.00 0.00 25 841.3
20260504043158 63 270 0.0 0.0 0.00 0.00 0.00 25 841.3
20260504041659 65 270 0.0 0.0 0.00 0.00 0.00 25 841.3
20260504040157 66 270 1.0 1.0 0.00 0.00 0.00 24 841.2
20260504034658 68 270 0.0 1.0 0.00 0.00 0.00 25 841.2
20260504033156 70 270 0.0 0.0 0.00 0.00 0.00 24 840.9
20260504031656 72 270 0.0 1.0 0.00 0.00 0.00 23 840.7
20260504030155 74 270 0.0 1.0 0.00 0.00 0.00 24 840.6
20260504023154 79 270 0.0 0.0 0.00 0.00 0.00 24 840.3
20260504020153 82 270 0.0 0.0 0.00 0.00 0.00 24 840.2
20260504014654 82 270 0.0 0.0 0.00 0.00 0.00 24 840.3
20260504013152 83 270 0.0 1.0 0.00 0.00 0.00 23 840.3
20260504011651 84 270 0.0 0.0 0.00 0.00 0.00 22 840.4
20260504010155 86 270 1.0 2.0 0.00 0.00 0.00 22 840.5
20260504003151 90 270 2.0 4.0 0.00 0.00 0.00 22 840.6
20260504000149 95 270 3.0 3.0 0.00 0.00 0.00 22 840.8
20260503230148 97 270 1.0 5.0 0.00 0.00 0.00 23 841.2
20260503223148 98 270 4.0 7.0 0.00 0.00 0.00 23 841.4
20260503221645 97 270 2.0 2.0 0.00 0.00 0.00 24 841.5
20260503220145 97 270 0.0 3.0 0.00 0.00 0.00 24 841.8
20260503214644 96 270 1.0 4.0 0.00 0.00 0.00 24 842.0
20260503213144 95 270 5.0 9.0 0.00 0.00 0.00 24 842.2
20260503210143 93 270 6.0 7.0 0.00 0.00 0.00 25 842.5
20260503203142 91 270 1.0 5.0 0.00 0.00 0.00 25 842.9
20260503201641 91 270 1.0 4.0 0.00 0.00 0.00 24 843.0
20260503200141 92 270 2.0 4.0 0.00 0.00 0.00 25 843.2
20260503194640 91 270 2.0 6.0 0.00 0.00 0.00 26 843.3
20260503193139 90 270 4.0 8.0 0.00 0.00 0.00 27 843.4
20260503191639 88 270 3.0 4.0 0.00 0.00 0.00 27 843.6
20260503190139 88 270 2.0 6.0 0.00 0.00 0.00 28 843.7
20260503183139 85 270 5.0 5.0 0.00 0.00 0.00 28 844.0
20260503180136 81 270 2.0 4.0 0.00 0.00 0.00 31 844.6
20260503173136 75 270 2.0 4.0 0.00 0.00 0.00 34 845.0
20260503170134 69 270 3.0 6.0 0.00 0.00 0.00 35 845.3
20260503160132 59 270 2.0 5.0 0.00 0.00 0.00 35 846.2
20260503150130 51 270 0.0 1.0 0.00 0.00 0.00 36 846.7
20260503140128 44 270 0.0 0.0 0.00 0.00 0.00 33 847.3
20260503130126 43 270 0.0 1.0 0.00 0.00 0.00 28 847.4
20260503120124 42 270 2.0 4.0 0.00 0.00 0.00 28 846.9
20260503110122 42 270 0.0 0.0 0.00 0.00 0.00 28 847.0
20260503100119 43 270 0.0 1.0 0.00 0.00 0.00 27 847.1